Previsão horária em Abbadia San Salvatore

Hoje, 13 Abril, Terça-feira

Tempo Temperatura Precipitação Vento Pressão Humidade
00:00 +2°C° 0 mm 2 m/s 669 mmHg 93%
01:00 +2°C° 0 mm 1 m/s 669 mmHg 93%
02:00 +2°C° 0 mm 1 m/s 669 mmHg 93%
03:00 +2°C° 0 mm 1 m/s 669 mmHg 92%
04:00 +2°C° 0 mm 1 m/s 669 mmHg 92%
05:00 +2°C° 0 mm 1 m/s 669 mmHg 91%
06:00 +2°C° 0 mm 0 m/s 670 mmHg 90%
07:00 +2°C° 0 mm 0 m/s 670 mmHg 89%
08:00 +4°C° 0 mm 1 m/s 671 mmHg 83%
09:00 +5°C° 0 mm 1 m/s 671 mmHg 77%
10:00 +5°C° 0 mm 2 m/s 672 mmHg 71%
11:00 +5°C° 0.1 mm 2 m/s 672 mmHg 71%
12:00 +4°C° 0.1 mm 3 m/s 672 mmHg 71%
13:00 +4°C° 0.1 mm 4 m/s 673 mmHg 71%
14:00 +4°C° 0 mm 4 m/s 673 mmHg 70%
15:00 +4°C° 0 mm 4 m/s 673 mmHg 68%
16:00 +2°C° 0 mm 5 m/s 673 mmHg 67%
17:00 +1°C° 0 mm 4 m/s 673 mmHg 70%
18:00 0°C° 0 mm 4 m/s 672 mmHg 74%
19:00 -1°C° 0 mm 3 m/s 672 mmHg 78%
20:00 -1°C° 0 mm 3 m/s 673 mmHg 80%
21:00 -2°C° 0 mm 3 m/s 673 mmHg 82%
22:00 -2°C° 0 mm 3 m/s 673 mmHg 83%
23:00 -3°C° 0 mm 4 m/s 673 mmHg 83%

Amanhã, 14 Abril, Quarta-feira

Tempo Temperatura Precipitação Vento Pressão Humidade
00:00 -3°C° 0 mm 4 m/s 673 mmHg 82%
01:00 -3°C° 0 mm 4 m/s 673 mmHg 82%
02:00 -3°C° 0 mm 4 m/s 673 mmHg 80%
03:00 -3°C° 0 mm 4 m/s 673 mmHg 78%
04:00 -4°C° 0 mm 5 m/s 673 mmHg 76%
05:00 -3°C° 0 mm 4 m/s 673 mmHg 74%
06:00 -2°C° 0 mm 4 m/s 673 mmHg 73%
07:00 -2°C° 0 mm 4 m/s 674 mmHg 71%
08:00 0°C° 0 mm 5 m/s 674 mmHg 64%
09:00 +1°C° 0 mm 6 m/s 674 mmHg 57%
10:00 +3°C° 0 mm 6 m/s 675 mmHg 51%
11:00 +4°C° 0 mm 6 m/s 675 mmHg 48%
12:00 +6°C° 0 mm 5 m/s 675 mmHg 45%
13:00 +6°C° 0 mm 5 m/s 675 mmHg 42%
14:00 +6°C° 0 mm 5 m/s 674 mmHg 43%
15:00 +6°C° 0 mm 4 m/s 674 mmHg 44%
16:00 +6°C° 0 mm 4 m/s 674 mmHg 45%
17:00 +4°C° 0 mm 3 m/s 673 mmHg 52%
18:00 +3°C° 0 mm 2 m/s 673 mmHg 59%
19:00 +2°C° 0 mm 1 m/s 673 mmHg 67%
20:00 +1°C° 0 mm 1 m/s 673 mmHg 67%
21:00 0°C° 0 mm 1 m/s 673 mmHg 67%
22:00 0°C° 0 mm 1 m/s 673 mmHg 67%
23:00 0°C° 0 mm 1 m/s 672 mmHg 67%

Depois de amanhã, 15 Abril, Quinta-feira

Tempo Temperatura Precipitação Vento Pressão Humidade
00:00 -1°C° 0 mm 1 m/s 672 mmHg 68%
01:00 -1°C° 0 mm 1 m/s 672 mmHg 68%
02:00 -1°C° 0 mm 1 m/s 672 mmHg 70%
03:00 -2°C° 0 mm 1 m/s 672 mmHg 72%
04:00 -2°C° 0 mm 1 m/s 672 mmHg 74%
05:00 -1°C° 0 mm 1 m/s 672 mmHg 73%
06:00 0°C° 0 mm 1 m/s 672 mmHg 72%
07:00 +1°C° 0 mm 1 m/s 672 mmHg 71%
08:00 +3°C° 0 mm 1 m/s 673 mmHg 65%
09:00 +5°C° 0 mm 1 m/s 673 mmHg 60%
10:00 +6°C° 0 mm 2 m/s 674 mmHg 54%
11:00 +8°C° 0.1 mm 1 m/s 674 mmHg 53%
12:00 +8°C° 0.1 mm 1 m/s 674 mmHg 52%
13:00 +9°C° 0.1 mm 1 m/s 673 mmHg 52%
14:00 +8°C° 0.4 mm 1 m/s 673 mmHg 56%
15:00 +8°C° 0.4 mm 1 m/s 673 mmHg 60%
16:00 +8°C° 0.4 mm 1 m/s 672 mmHg 64%
17:00 +6°C° 0.3 mm 1 m/s 672 mmHg 70%
18:00 +4°C° 0.3 mm 1 m/s 672 mmHg 76%
19:00 +3°C° 0.3 mm 1 m/s 671 mmHg 82%
20:00 +2°C° 0 mm 1 m/s 671 mmHg 83%
21:00 +2°C° 0 mm 1 m/s 672 mmHg 84%
22:00 +1°C° 0 mm 1 m/s 672 mmHg 84%
23:00 +1°C° 0 mm 1 m/s 672 mmHg 85%

16 Abril, Sexta-feira

Tempo Temperatura Precipitação Vento Pressão Humidade
00:00 0°C° 0 mm 1 m/s 671 mmHg 86%
01:00 0°C° 0 mm 1 m/s 671 mmHg 87%
02:00 0°C° 0 mm 1 m/s 671 mmHg 87%
03:00 0°C° 0 mm 1 m/s 670 mmHg 88%
04:00 -1°C° 0 mm 1 m/s 670 mmHg 88%
05:00 0°C° 0 mm 1 m/s 670 mmHg 85%
06:00 0°C° 0 mm 1 m/s 670 mmHg 82%
07:00 +1°C° 0 mm 1 m/s 670 mmHg 80%
08:00 +2°C° 0 mm 2 m/s 671 mmHg 68%
09:00 +4°C° 0 mm 2 m/s 671 mmHg 56%
10:00 +5°C° 0 mm 3 m/s 672 mmHg 44%
11:00 +7°C° 0 mm 3 m/s 671 mmHg 43%
12:00 +7°C° 0 mm 3 m/s 671 mmHg 41%
13:00 +8°C° 0 mm 3 m/s 671 mmHg 40%
14:00 +8°C° 0 mm 3 m/s 671 mmHg 41%
15:00 +7°C° 0 mm 4 m/s 670 mmHg 43%
16:00 +7°C° 0 mm 4 m/s 670 mmHg 45%
17:00 +5°C° 0 mm 4 m/s 670 mmHg 51%
18:00 +4°C° 0 mm 3 m/s 669 mmHg 57%
19:00 +2°C° 0 mm 3 m/s 669 mmHg 63%
20:00 +1°C° 0 mm 3 m/s 669 mmHg 67%
21:00 +1°C° 0 mm 2 m/s 669 mmHg 71%
22:00 -1°C° 0 mm 2 m/s 669 mmHg 75%
23:00 -2°C° 0 mm 2 m/s 668 mmHg 77%

17 Abril, Sábado

Tempo Temperatura Precipitação Vento Pressão Humidade
00:00 -2°C° 0 mm 2 m/s 668 mmHg 78%
01:00 -3°C° 0 mm 2 m/s 668 mmHg 80%
02:00 -3°C° 0 mm 2 m/s 667 mmHg 80%
03:00 -4°C° 0 mm 2 m/s 667 mmHg 81%
04:00 -4°C° 0 mm 2 m/s 667 mmHg 81%
05:00 -3°C° 0 mm 2 m/s 667 mmHg 78%
06:00 -2°C° 0 mm 2 m/s 667 mmHg 76%
07:00 -1°C° 0 mm 2 m/s 668 mmHg 73%
08:00 +1°C° 0 mm 3 m/s 668 mmHg 66%
09:00 +4°C° 0 mm 4 m/s 669 mmHg 59%
10:00 +6°C° 0 mm 4 m/s 669 mmHg 52%
11:00 +7°C° 0 mm 4 m/s 669 mmHg 49%
12:00 +8°C° 0 mm 4 m/s 669 mmHg 46%
13:00 +10°C° 0 mm 3 m/s 669 mmHg 43%
14:00 +9°C° 0 mm 3 m/s 669 mmHg 45%
15:00 +9°C° 0 mm 3 m/s 669 mmHg 48%
16:00 +8°C° 0 mm 3 m/s 669 mmHg 50%
17:00 +7°C° 0 mm 3 m/s 668 mmHg 57%
18:00 +4°C° 0 mm 3 m/s 668 mmHg 64%
19:00 +2°C° 0 mm 3 m/s 668 mmHg 71%
20:00 +2°C° 0 mm 2 m/s 668 mmHg 74%
21:00 +1°C° 0 mm 2 m/s 668 mmHg 78%
22:00 -1°C° 0 mm 2 m/s 668 mmHg 82%
23:00 -2°C° 0 mm 2 m/s 668 mmHg 84%

18 Abril, Domingo

Tempo Temperatura Precipitação Vento Pressão Humidade
00:00 -2°C° 0 mm 2 m/s 668 mmHg 86%
01:00 -3°C° 0 mm 2 m/s 667 mmHg 89%
02:00 -3°C° 0 mm 2 m/s 667 mmHg 89%
03:00 -3°C° 0 mm 2 m/s 667 mmHg 90%
04:00 -3°C° 0 mm 2 m/s 667 mmHg 90%
05:00 -2°C° 0 mm 2 m/s 668 mmHg 86%
06:00 -1°C° 0 mm 2 m/s 668 mmHg 83%
07:00 +1°C° 0 mm 2 m/s 668 mmHg 79%
08:00 +3°C° 0 mm 2 m/s 669 mmHg 72%
09:00 +4°C° 0 mm 3 m/s 669 mmHg 64%
10:00 +7°C° 0 mm 3 m/s 670 mmHg 57%
11:00 +6°C° 0 mm 4 m/s 670 mmHg 54%
12:00 +7°C° 0 mm 4 m/s 670 mmHg 52%
13:00 +8°C° 0 mm 4 m/s 670 mmHg 49%
14:00 +7°C° 0 mm 4 m/s 669 mmHg 50%
15:00 +7°C° 0 mm 5 m/s 669 mmHg 51%
16:00 +7°C° 0 mm 5 m/s 669 mmHg 53%
17:00 +5°C° 0 mm 4 m/s 669 mmHg 59%
18:00 +3°C° 0 mm 4 m/s 668 mmHg 64%
19:00 +2°C° 0 mm 3 m/s 668 mmHg 70%
20:00 +1°C° 0 mm 3 m/s 668 mmHg 74%
21:00 0°C° 0 mm 3 m/s 668 mmHg 77%
22:00 -1°C° 0 mm 3 m/s 668 mmHg 81%
23:00 -1°C° 0 mm 3 m/s 668 mmHg 82%
Mostrar mais

Necessitamos do seu Consentimento

A Meteoprog e os seus Fornecedores de Serviços podem armazenar e aceder a dados pessoais como cookies, identificadores do dispositivo ou outras tecnologias semelhantes existentes no seu dispositivo e processar estes dados para personalizar conteúdos e anúncios, assim como funcionalidades nas redes sociais e análise de tráfego.

  • Armazenar e/ou aceder a informações no seu dispositivo

    Os cookies, identificadores do dispositivo ou outras informações podem ser armazenados ou acedidos no seu dispositivo, para os fins acima indicados.

  • Anúncios e conteúdos personalizados, medição de anúncios e conteúdos, dados sobre o público-alvo e desenvolvimento de produtos

    Os anúncios e os conteúdos podem ser personalizados com base num perfil. Podem ser adicionados dados adicionais para uma maior personalização dos anúncios e dos conteúdos. A eficácia dos anúncios e dos conteúdos pode ser medida. Podem ser obtidas informações sobre o público que visualizou os anúncios e os conteúdos. Estes dados podem ser usados para desenvolver ou melhorar sistemas, softwares ou a experiência do utilizador.

Ao clicar em "Eu concordo”, permitirá o uso de cookies, identificadores do dispositivo e web beacons mencionados ou outras tecnologias semelhantes. As configurações do navegador do seu dispositivo podem ser alteradas.

Para certos fins, podem ser invocados interesses legítimos ao invés de consentimento. Pode ler mais informação sobre este assunto na nossa Política de Privacidade e Cookies.